owner,sensor,date,latitude,longitude,vertical_datum,sea_water_practical_salinity,qcFlag 
NERRS,ioos:station:NOAA.NERRS:gndpcwq:1,2015-04-01T00:00:00Z,30.3486,-88.4185,1.4,21.2,1111122 
NERRS,ioos:station:NOAA.NERRS:gndpcwq:1,2015-04-01T01:00:00Z,30.3486,-88.4185,1.41,21.0,1111122 
NERRS,ioos:station:NOAA.NERRS:gndpcwq:1,2015-04-01T02:00:00Z,30.3486,-88.4185,1.39,21.0,1111122 
NERRS,ioos:station:NOAA.NERRS:gndpcwq:1,2015-04-01T03:00:00Z,30.3486,-88.4185,1.37,21.1,1111122 
NERRS,ioos:station:NOAA.NERRS:gndpcwq:1,2015-04-01T04:00:00Z,30.3486,-88.4185,1.31,21.0,1111122 
NERRS,ioos:station:NOAA.NERRS:gndpcwq:1,2015-04-01T06:00:00Z,30.3486,-88.4185,1.23,21.0,1111122 
NERRS,ioos:station:NOAA.NERRS:gndpcwq:1,2015-04-01T07:00:00Z,30.3486,-88.4185,1.19,21.0,1111122 
NERRS,ioos:station:NOAA.NERRS:gndpcwq:1,2015-04-01T08:00:00Z,30.3486,-88.4185,1.17,21.0,1111122 
NERRS,ioos:station:NOAA.NERRS:gndpcwq:1,2015-04-01T09:00:00Z,30.3486,-88.4185,1.18,21.0,1111122 
NERRS,ioos:station:NOAA.NERRS:gndpcwq:1,2015-04-01T10:00:00Z,30.3486,-88.4185,1.2,21.0,1111122 
NERRS,ioos:station:NOAA.NERRS:gndpcwq:1,2015-04-01T11:00:00Z,30.3486,-88.4185,1.21,21.2,1111122 
NERRS,ioos:station:NOAA.NERRS:gndpcwq:1,2015-04-01T12:00:00Z,30.3486,-88.4185,1.22,21.3,1111122 
NERRS,ioos:station:NOAA.NERRS:gndpcwq:1,2015-04-01T13:00:00Z,30.3486,-88.4185,1.23,21.5,1111122 
NERRS,ioos:station:NOAA.NERRS:gndpcwq:1,2015-04-01T14:00:00Z,30.3486,-88.4185,1.23,21.5,1111122 
NERRS,ioos:station:NOAA.NERRS:gndpcwq:1,2015-04-01T15:00:00Z,30.3486,-88.4185,1.26,21.5,1111122 
NERRS,ioos:station:NOAA.NERRS:gndpcwq:1,2015-04-01T16:00:00Z,30.3486,-88.4185,1.29,21.2,1111122 
NERRS,ioos:station:NOAA.NERRS:gndpcwq:1,2015-04-01T17:00:00Z,30.3486,-88.4185,1.31,21.2,1111122 
NERRS,ioos:station:NOAA.NERRS:gndpcwq:1,2015-04-01T18:00:00Z,30.3486,-88.4185,1.29,21.2,1111122 
NERRS,ioos:station:NOAA.NERRS:gndpcwq:1,2015-04-01T19:00:00Z,30.3486,-88.4185,1.26,21.1,1111122 
NERRS,ioos:station:NOAA.NERRS:gndpcwq:1,2015-04-01T20:00:00Z,30.3486,-88.4185,1.23,21.1,1111122 
NERRS,ioos:station:NOAA.NERRS:gndpcwq:1,2015-04-01T21:00:00Z,30.3486,-88.4185,1.24,21.2,1111122 
NERRS,ioos:station:NOAA.NERRS:gndpcwq:1,2015-04-01T22:00:00Z,30.3486,-88.4185,1.29,21.3,1111122 
NERRS,ioos:station:NOAA.NERRS:gndpcwq:1,2015-04-01T23:00:00Z,30.3486,-88.4185,1.35,20.9,1111122 
NERRS,ioos:station:NOAA.NERRS:gndpcwq:1,2015-04-02T00:00:00Z,30.3486,-88.4185,1.36,20.6,1111122 
NERRS,ioos:station:NOAA.NERRS:gndpcwq:1,2015-04-02T01:00:00Z,30.3486,-88.4185,1.37,20.4,1111122 
NERRS,ioos:station:NOAA.NERRS:gndpcwq:1,2015-04-02T02:00:00Z,30.3486,-88.4185,1.35,20.2,1111122 
NERRS,ioos:station:NOAA.NERRS:gndpcwq:1,2015-04-02T03:00:00Z,30.3486,-88.4185,1.37,19.8,1111122 
NERRS,ioos:station:NOAA.NERRS:gndpcwq:1,2015-04-02T04:00:00Z,30.3486,-88.4185,1.36,19.8,1111122 
NERRS,ioos:station:NOAA.NERRS:gndpcwq:1,2015-04-02T05:00:00Z,30.3486,-88.4185,1.35,19.8,1111122 
NERRS,ioos:station:NOAA.NERRS:gndpcwq:1,2015-04-02T06:00:00Z,30.3486,-88.4185,1.31,19.7,1111122 
NERRS,ioos:station:NOAA.NERRS:gndpcwq:1,2015-04-02T07:00:00Z,30.3486,-88.4185,1.29,19.7,1111122 
NERRS,ioos:station:NOAA.NERRS:gndpcwq:1,2015-04-02T08:00:00Z,30.3486,-88.4185,1.25,19.7,1111122 
NERRS,ioos:station:NOAA.NERRS:gndpcwq:1,2015-04-02T09:00:00Z,30.3486,-88.4185,1.25,19.7,1111122 
NERRS,ioos:station:NOAA.NERRS:gndpcwq:1,2015-04-02T10:00:00Z,30.3486,-88.4185,1.27,19.8,1111122 
NERRS,ioos:station:NOAA.NERRS:gndpcwq:1,2015-04-02T11:00:00Z,30.3486,-88.4185,1.29,19.8,1111122 
NERRS,ioos:station:NOAA.NERRS:gndpcwq:1,2015-04-02T12:00:00Z,30.3486,-88.4185,1.35,20.1,1111122 
NERRS,ioos:station:NOAA.NERRS:gndpcwq:1,2015-04-02T13:00:00Z,30.3486,-88.4185,1.38,20.3,1111122 
NERRS,ioos:station:NOAA.NERRS:gndpcwq:1,2015-04-02T14:00:00Z,30.3486,-88.4185,1.4,20.2,1111122 
NERRS,ioos:station:NOAA.NERRS:gndpcwq:1,2015-04-02T15:00:00Z,30.3486,-88.4185,1.39,20.2,1111122 
NERRS,ioos:station:NOAA.NERRS:gndpcwq:1,2015-04-02T16:00:00Z,30.3486,-88.4185,1.39,20.2,1111122 
NERRS,ioos:station:NOAA.NERRS:gndpcwq:1,2015-04-02T17:00:00Z,30.3486,-88.4185,1.4,20.1,1111122 
NERRS,ioos:station:NOAA.NERRS:gndpcwq:1,2015-04-02T18:00:00Z,30.3486,-88.4185,1.38,19.9,1111122 
NERRS,ioos:station:NOAA.NERRS:gndpcwq:1,2015-04-02T19:00:00Z,30.3486,-88.4185,1.34,19.7,1111122 
NERRS,ioos:station:NOAA.NERRS:gndpcwq:1,2015-04-02T20:00:00Z,30.3486,-88.4185,1.29,19.7,1111122 
NERRS,ioos:station:NOAA.NERRS:gndpcwq:1,2015-04-02T21:00:00Z,30.3486,-88.4185,1.26,19.5,1111122 
NERRS,ioos:station:NOAA.NERRS:gndpcwq:1,2015-04-02T22:00:00Z,30.3486,-88.4185,1.28,20.3,1111122 
NERRS,ioos:station:NOAA.NERRS:gndpcwq:1,2015-04-02T23:00:00Z,30.3486,-88.4185,1.31,20.6,1111122 
NERRS,ioos:station:NOAA.NERRS:gndpcwq:1,2015-04-03T00:00:00Z,30.3486,-88.4185,1.36,20.9,1111122 
NERRS,ioos:station:NOAA.NERRS:gndpcwq:1,2015-04-03T01:00:00Z,30.3486,-88.4185,1.39,20.9,1111122 
NERRS,ioos:station:NOAA.NERRS:gndpcwq:1,2015-04-03T02:00:00Z,30.3486,-88.4185,1.4,20.6,1111122 
NERRS,ioos:station:NOAA.NERRS:gndpcwq:1,2015-04-03T03:00:00Z,30.3486,-88.4185,1.39,20.3,1111122 
NERRS,ioos:station:NOAA.NERRS:gndpcwq:1,2015-04-03T04:00:00Z,30.3486,-88.4185,1.39,20.1,1111122 
NERRS,ioos:station:NOAA.NERRS:gndpcwq:1,2015-04-03T05:00:00Z,30.3486,-88.4185,1.37,20.1,1111122 
NERRS,ioos:station:NOAA.NERRS:gndpcwq:1,2015-04-03T06:00:00Z,30.3486,-88.4185,1.34,20.2,1111122 
NERRS,ioos:station:NOAA.NERRS:gndpcwq:1,2015-04-03T07:00:00Z,30.3486,-88.4185,1.32,20.2,1111122 
NERRS,ioos:station:NOAA.NERRS:gndpcwq:1,2015-04-03T08:00:00Z,30.3486,-88.4185,1.3,20.3,1111122 
NERRS,ioos:station:NOAA.NERRS:gndpcwq:1,2015-04-03T09:00:00Z,30.3486,-88.4185,1.29,20.4,1111122 
NERRS,ioos:station:NOAA.NERRS:gndpcwq:1,2015-04-03T10:00:00Z,30.3486,-88.4185,1.28,20.3,1111122 
NERRS,ioos:station:NOAA.NERRS:gndpcwq:1,2015-04-03T11:00:00Z,30.3486,-88.4185,1.29,20.4,1111122 
NERRS,ioos:station:NOAA.NERRS:gndpcwq:1,2015-04-03T12:00:00Z,30.3486,-88.4185,1.34,20.5,1111122 
NERRS,ioos:station:NOAA.NERRS:gndpcwq:1,2015-04-03T13:00:00Z,30.3486,-88.4185,1.39,20.6,1111122 
NERRS,ioos:station:NOAA.NERRS:gndpcwq:1,2015-04-03T14:00:00Z,30.3486,-88.4185,1.39,20.6,1111122 
NERRS,ioos:station:NOAA.NERRS:gndpcwq:1,2015-04-03T15:00:00Z,30.3486,-88.4185,1.38,20.6,1111122 
NERRS,ioos:station:NOAA.NERRS:gndpcwq:1,2015-04-03T16:00:00Z,30.3486,-88.4185,1.38,20.5,1111122 
NERRS,ioos:station:NOAA.NERRS:gndpcwq:1,2015-04-03T17:00:00Z,30.3486,-88.4185,1.4,20.5,1111122 
NERRS,ioos:station:NOAA.NERRS:gndpcwq:1,2015-04-03T18:00:00Z,30.3486,-88.4185,1.37,20.5,1111122 
NERRS,ioos:station:NOAA.NERRS:gndpcwq:1,2015-04-03T19:00:00Z,30.3486,-88.4185,1.33,20.5,1111122 
NERRS,ioos:station:NOAA.NERRS:gndpcwq:1,2015-04-03T20:00:00Z,30.3486,-88.4185,1.28,20.5,1111122 
NERRS,ioos:station:NOAA.NERRS:gndpcwq:1,2015-04-03T21:00:00Z,30.3486,-88.4185,1.27,20.6,1111122 
NERRS,ioos:station:NOAA.NERRS:gndpcwq:1,2015-04-03T22:00:00Z,30.3486,-88.4185,1.27,20.8,1111122 
NERRS,ioos:station:NOAA.NERRS:gndpcwq:1,2015-04-03T23:00:00Z,30.3486,-88.4185,1.29,20.8,1111122 
NERRS,ioos:station:NOAA.NERRS:gndpcwq:1,2015-04-04T00:00:00Z,30.3486,-88.4185,1.31,20.7,1111122 
NERRS,ioos:station:NOAA.NERRS:gndpcwq:1,2015-04-04T01:00:00Z,30.3486,-88.4185,1.34,20.7,1111122 
NERRS,ioos:station:NOAA.NERRS:gndpcwq:1,2015-04-04T02:00:00Z,30.3486,-88.4185,1.36,20.6,1111122 
NERRS,ioos:station:NOAA.NERRS:gndpcwq:1,2015-04-04T03:00:00Z,30.3486,-88.4185,1.39,20.6,1111122 
NERRS,ioos:station:NOAA.NERRS:gndpcwq:1,2015-04-04T04:00:00Z,30.3486,-88.4185,1.39,20.5,1111122 
NERRS,ioos:station:NOAA.NERRS:gndpcwq:1,2015-04-04T06:00:00Z,30.3486,-88.4185,1.33,20.5,1111122 
NERRS,ioos:station:NOAA.NERRS:gndpcwq:1,2015-04-04T07:00:00Z,30.3486,-88.4185,1.3,20.6,1111122 
NERRS,ioos:station:NOAA.NERRS:gndpcwq:1,2015-04-04T08:00:00Z,30.3486,-88.4185,1.27,20.6,1111122 
NERRS,ioos:station:NOAA.NERRS:gndpcwq:1,2015-04-04T09:00:00Z,30.3486,-88.4185,1.25,20.5,1111122 
NERRS,ioos:station:NOAA.NERRS:gndpcwq:1,2015-04-04T10:00:00Z,30.3486,-88.4185,1.27,20.5,1111122 
NERRS,ioos:station:NOAA.NERRS:gndpcwq:1,2015-04-04T11:00:00Z,30.3486,-88.4185,1.28,20.5,1111122 
NERRS,ioos:station:NOAA.NERRS:gndpcwq:1,2015-04-04T12:00:00Z,30.3486,-88.4185,1.28,20.4,1111122 
NERRS,ioos:station:NOAA.NERRS:gndpcwq:1,2015-04-04T13:00:00Z,30.3486,-88.4185,1.27,20.5,1111122 
NERRS,ioos:station:NOAA.NERRS:gndpcwq:1,2015-04-04T14:00:00Z,30.3486,-88.4185,1.27,20.2,1111122 
NERRS,ioos:station:NOAA.NERRS:gndpcwq:1,2015-04-04T15:00:00Z,30.3486,-88.4185,1.22,20.5,1111122 
NERRS,ioos:station:NOAA.NERRS:gndpcwq:1,2015-04-04T16:00:00Z,30.3486,-88.4185,1.2,20.1,1111122 
NERRS,ioos:station:NOAA.NERRS:gndpcwq:1,2015-04-04T17:00:00Z,30.3486,-88.4185,1.22,20.0,1111122 
NERRS,ioos:station:NOAA.NERRS:gndpcwq:1,2015-04-04T18:00:00Z,30.3486,-88.4185,1.23,20.0,1111122 
NERRS,ioos:station:NOAA.NERRS:gndpcwq:1,2015-04-04T19:00:00Z,30.3486,-88.4185,1.27,19.9,1111122 
NERRS,ioos:station:NOAA.NERRS:gndpcwq:1,2015-04-04T20:00:00Z,30.3486,-88.4185,1.23,19.7,1111122 
NERRS,ioos:station:NOAA.NERRS:gndpcwq:1,2015-04-04T21:00:00Z,30.3486,-88.4185,1.17,19.5,1111122 
NERRS,ioos:station:NOAA.NERRS:gndpcwq:1,2015-04-04T22:00:00Z,30.3486,-88.4185,1.11,19.5,1111122 
NERRS,ioos:station:NOAA.NERRS:gndpcwq:1,2015-04-04T23:00:00Z,30.3486,-88.4185,1.1,19.5,1111122 
NERRS,ioos:station:NOAA.NERRS:gndpcwq:1,2015-04-05T00:00:00Z,30.3486,-88.4185,1.14,19.5,1111122 
NERRS,ioos:station:NOAA.NERRS:gndpcwq:1,2015-04-05T01:00:00Z,30.3486,-88.4185,1.19,19.5,1111122 
NERRS,ioos:station:NOAA.NERRS:gndpcwq:1,2015-04-05T02:00:00Z,30.3486,-88.4185,1.22,19.5,1111122 
NERRS,ioos:station:NOAA.NERRS:gndpcwq:1,2015-04-05T03:00:00Z,30.3486,-88.4185,1.22,19.4,1111122 
NERRS,ioos:station:NOAA.NERRS:gndpcwq:1,2015-04-05T04:00:00Z,30.3486,-88.4185,1.23,19.4,1111122 
NERRS,ioos:station:NOAA.NERRS:gndpcwq:1,2015-04-05T06:00:00Z,30.3486,-88.4185,1.26,19.5,1111122 
NERRS,ioos:station:NOAA.NERRS:gndpcwq:1,2015-04-05T07:00:00Z,30.3486,-88.4185,1.29,19.4,1111122 
NERRS,ioos:station:NOAA.NERRS:gndpcwq:1,2015-04-05T08:00:00Z,30.3486,-88.4185,1.34,19.6,1111122 
NERRS,ioos:station:NOAA.NERRS:gndpcwq:1,2015-04-05T09:00:00Z,30.3486,-88.4185,1.35,19.7,1111122 
NERRS,ioos:station:NOAA.NERRS:gndpcwq:1,2015-04-05T10:00:00Z,30.3486,-88.4185,1.37,19.9,1111122 
NERRS,ioos:station:NOAA.NERRS:gndpcwq:1,2015-04-05T11:00:00Z,30.3486,-88.4185,1.4,20.0,1111122 
NERRS,ioos:station:NOAA.NERRS:gndpcwq:1,2015-04-05T12:00:00Z,30.3486,-88.4185,1.44,20.1,1111122 
NERRS,ioos:station:NOAA.NERRS:gndpcwq:1,2015-04-05T13:00:00Z,30.3486,-88.4185,1.48,20.2,1111122 
NERRS,ioos:station:NOAA.NERRS:gndpcwq:1,2015-04-05T14:00:00Z,30.3486,-88.4185,1.53,20.0,1111122 
NERRS,ioos:station:NOAA.NERRS:gndpcwq:1,2015-04-05T15:00:00Z,30.3486,-88.4185,1.54,19.9,1111122 
NERRS,ioos:station:NOAA.NERRS:gndpcwq:1,2015-04-05T16:00:00Z,30.3486,-88.4185,1.55,19.9,1111122 
NERRS,ioos:station:NOAA.NERRS:gndpcwq:1,2015-04-05T17:00:00Z,30.3486,-88.4185,1.53,19.9,1111122 
NERRS,ioos:station:NOAA.NERRS:gndpcwq:1,2015-04-05T18:00:00Z,30.3486,-88.4185,1.5,19.3,1111122 
NERRS,ioos:station:NOAA.NERRS:gndpcwq:1,2015-04-05T19:00:00Z,30.3486,-88.4185,1.45,19.9,1111122 
NERRS,ioos:station:NOAA.NERRS:gndpcwq:1,2015-04-05T20:00:00Z,30.3486,-88.4185,1.36,20.0,1111122 
NERRS,ioos:station:NOAA.NERRS:gndpcwq:1,2015-04-05T21:00:00Z,30.3486,-88.4185,1.29,19.9,1111122 
NERRS,ioos:station:NOAA.NERRS:gndpcwq:1,2015-04-05T22:00:00Z,30.3486,-88.4185,1.23,18.9,1111122 
NERRS,ioos:station:NOAA.NERRS:gndpcwq:1,2015-04-05T23:00:00Z,30.3486,-88.4185,1.19,18.7,1111122 
NERRS,ioos:station:NOAA.NERRS:gndpcwq:1,2015-04-06T00:00:00Z,30.3486,-88.4185,1.17,18.7,1111122 
NERRS,ioos:station:NOAA.NERRS:gndpcwq:1,2015-04-06T01:00:00Z,30.3486,-88.4185,1.18,19.1,1111122 
NERRS,ioos:station:NOAA.NERRS:gndpcwq:1,2015-04-06T02:00:00Z,30.3486,-88.4185,1.21,19.3,1111122 
NERRS,ioos:station:NOAA.NERRS:gndpcwq:1,2015-04-06T03:00:00Z,30.3486,-88.4185,1.24,19.0,1111122 
NERRS,ioos:station:NOAA.NERRS:gndpcwq:1,2015-04-06T04:00:00Z,30.3486,-88.4185,1.3,19.1,1111122 
NERRS,ioos:station:NOAA.NERRS:gndpcwq:1,2015-04-06T05:00:00Z,30.3486,-88.4185,1.33,19.0,1111122 
NERRS,ioos:station:NOAA.NERRS:gndpcwq:1,2015-04-06T06:00:00Z,30.3486,-88.4185,1.35,18.9,1111122 
NERRS,ioos:station:NOAA.NERRS:gndpcwq:1,2015-04-06T07:00:00Z,30.3486,-88.4185,1.39,18.5,1111122 
NERRS,ioos:station:NOAA.NERRS:gndpcwq:1,2015-04-06T08:00:00Z,30.3486,-88.4185,1.38,18.7,1111122 
NERRS,ioos:station:NOAA.NERRS:gndpcwq:1,2015-04-06T09:00:00Z,30.3486,-88.4185,1.35,19.0,1111122 
NERRS,ioos:station:NOAA.NERRS:gndpcwq:1,2015-04-06T10:00:00Z,30.3486,-88.4185,1.33,18.9,1111122 
NERRS,ioos:station:NOAA.NERRS:gndpcwq:1,2015-04-06T11:00:00Z,30.3486,-88.4185,1.38,18.5,1111122 
NERRS,ioos:station:NOAA.NERRS:gndpcwq:1,2015-04-06T12:00:00Z,30.3486,-88.4185,1.45,18.5,1111122 
NERRS,ioos:station:NOAA.NERRS:gndpcwq:1,2015-04-06T13:00:00Z,30.3486,-88.4185,1.51,18.6,1111122 
NERRS,ioos:station:NOAA.NERRS:gndpcwq:1,2015-04-06T14:00:00Z,30.3486,-88.4185,1.55,18.7,1111122 
NERRS,ioos:station:NOAA.NERRS:gndpcwq:1,2015-04-06T15:00:00Z,30.3486,-88.4185,1.57,18.7,1111122 
NERRS,ioos:station:NOAA.NERRS:gndpcwq:1,2015-04-06T16:00:00Z,30.3486,-88.4185,1.58,18.6,1111122 
NERRS,ioos:station:NOAA.NERRS:gndpcwq:1,2015-04-06T17:00:00Z,30.3486,-88.4185,1.58,18.6,1111122 
NERRS,ioos:station:NOAA.NERRS:gndpcwq:1,2015-04-06T18:00:00Z,30.3486,-88.4185,1.55,19.0,1111122 
NERRS,ioos:station:NOAA.NERRS:gndpcwq:1,2015-04-06T19:00:00Z,30.3486,-88.4185,1.49,19.1,1111122 
NERRS,ioos:station:NOAA.NERRS:gndpcwq:1,2015-04-06T20:00:00Z,30.3486,-88.4185,1.42,19.0,1111122 
NERRS,ioos:station:NOAA.NERRS:gndpcwq:1,2015-04-06T21:00:00Z,30.3486,-88.4185,1.36,18.9,1111122 
NERRS,ioos:station:NOAA.NERRS:gndpcwq:1,2015-04-06T22:00:00Z,30.3486,-88.4185,1.3,17.5,1111122 
NERRS,ioos:station:NOAA.NERRS:gndpcwq:1,2015-04-06T23:00:00Z,30.3486,-88.4185,1.26,17.6,1111122 
NERRS,ioos:station:NOAA.NERRS:gndpcwq:1,2015-04-07T00:00:00Z,30.3486,-88.4185,1.22,17.9,1111122 
NERRS,ioos:station:NOAA.NERRS:gndpcwq:1,2015-04-07T01:00:00Z,30.3486,-88.4185,1.23,18.4,1111122 
NERRS,ioos:station:NOAA.NERRS:gndpcwq:1,2015-04-07T02:00:00Z,30.3486,-88.4185,1.27,18.1,1111122 
NERRS,ioos:station:NOAA.NERRS:gndpcwq:1,2015-04-07T03:00:00Z,30.3486,-88.4185,1.27,17.7,1111122 
NERRS,ioos:station:NOAA.NERRS:gndpcwq:1,2015-04-07T04:00:00Z,30.3486,-88.4185,1.28,18.5,1111122 
NERRS,ioos:station:NOAA.NERRS:gndpcwq:1,2015-04-07T06:00:00Z,30.3486,-88.4185,1.35,18.5,1111122 
NERRS,ioos:station:NOAA.NERRS:gndpcwq:1,2015-04-07T07:00:00Z,30.3486,-88.4185,1.37,18.6,1111122 
NERRS,ioos:station:NOAA.NERRS:gndpcwq:1,2015-04-07T08:00:00Z,30.3486,-88.4185,1.35,18.6,1111122 
NERRS,ioos:station:NOAA.NERRS:gndpcwq:1,2015-04-07T09:00:00Z,30.3486,-88.4185,1.34,18.6,1111122 
NERRS,ioos:station:NOAA.NERRS:gndpcwq:1,2015-04-07T10:00:00Z,30.3486,-88.4185,1.36,18.4,1111122 
NERRS,ioos:station:NOAA.NERRS:gndpcwq:1,2015-04-07T11:00:00Z,30.3486,-88.4185,1.41,18.4,1111122 
NERRS,ioos:station:NOAA.NERRS:gndpcwq:1,2015-04-07T12:00:00Z,30.3486,-88.4185,1.47,18.2,1111122 
NERRS,ioos:station:NOAA.NERRS:gndpcwq:1,2015-04-07T13:00:00Z,30.3486,-88.4185,1.52,17.9,1111122 
NERRS,ioos:station:NOAA.NERRS:gndpcwq:1,2015-04-07T14:00:00Z,30.3486,-88.4185,1.54,17.6,1111122 
NERRS,ioos:station:NOAA.NERRS:gndpcwq:1,2015-04-07T15:00:00Z,30.3486,-88.4185,1.57,17.5,1111122 
NERRS,ioos:station:NOAA.NERRS:gndpcwq:1,2015-04-07T16:00:00Z,30.3486,-88.4185,1.58,17.6,1111122 
NERRS,ioos:station:NOAA.NERRS:gndpcwq:1,2015-04-07T17:00:00Z,30.3486,-88.4185,1.56,17.6,1111122 
NERRS,ioos:station:NOAA.NERRS:gndpcwq:1,2015-04-07T18:00:00Z,30.3486,-88.4185,1.51,17.7,1111122 
NERRS,ioos:station:NOAA.NERRS:gndpcwq:1,2015-04-07T19:00:00Z,30.3486,-88.4185,1.45,17.8,1111122 
NERRS,ioos:station:NOAA.NERRS:gndpcwq:1,2015-04-07T20:00:00Z,30.3486,-88.4185,1.39,18.2,1111122 
NERRS,ioos:station:NOAA.NERRS:gndpcwq:1,2015-04-07T21:00:00Z,30.3486,-88.4185,1.33,17.3,1111122 
NERRS,ioos:station:NOAA.NERRS:gndpcwq:1,2015-04-07T22:00:00Z,30.3486,-88.4185,1.25,16.5,1111122 
NERRS,ioos:station:NOAA.NERRS:gndpcwq:1,2015-04-07T23:00:00Z,30.3486,-88.4185,1.19,16.4,1111122 
NERRS,ioos:station:NOAA.NERRS:gndpcwq:1,2015-04-08T00:00:00Z,30.3486,-88.4185,1.14,16.6,1111122 
NERRS,ioos:station:NOAA.NERRS:gndpcwq:1,2015-04-08T01:00:00Z,30.3486,-88.4185,1.13,16.5,1111122 
NERRS,ioos:station:NOAA.NERRS:gndpcwq:1,2015-04-08T02:00:00Z,30.3486,-88.4185,1.16,16.5,1111122 
NERRS,ioos:station:NOAA.NERRS:gndpcwq:1,2015-04-08T03:00:00Z,30.3486,-88.4185,1.16,16.6,1111122 
NERRS,ioos:station:NOAA.NERRS:gndpcwq:1,2015-04-08T04:00:00Z,30.3486,-88.4185,1.19,16.4,1111122 
NERRS,ioos:station:NOAA.NERRS:gndpcwq:1,2015-04-08T07:00:00Z,30.3486,-88.4185,1.27,906.6,1111122 
NERRS,ioos:station:NOAA.NERRS:gndpcwq:1,2015-04-08T08:00:00Z,30.3486,-88.4185,1.3,594.2,1111122 
NERRS,ioos:station:NOAA.NERRS:gndpcwq:1,2015-04-08T09:00:00Z,30.3486,-88.4185,1.32,739.8,1111122 
NERRS,ioos:station:NOAA.NERRS:gndpcwq:1,2015-04-08T13:00:00Z,30.3486,-88.4185,1.49,975.1,1111122 
NERRS,ioos:station:NOAA.NERRS:gndpcwq:1,2015-04-08T14:00:00Z,30.3486,-88.4185,1.55,892.5,1111122 
NERRS,ioos:station:NOAA.NERRS:gndpcwq:1,2015-04-08T15:00:00Z,30.3486,-88.4185,1.6,722.5,1111122 
NERRS,ioos:station:NOAA.NERRS:gndpcwq:1,2015-04-08T16:00:00Z,30.3486,-88.4185,1.6,518.3,1111122 
NERRS,ioos:station:NOAA.NERRS:gndpcwq:1,2015-04-08T18:00:00Z,30.3486,-88.4185,1.59,742.6,1111122 
NERRS,ioos:station:NOAA.NERRS:gndpcwq:1,2015-04-08T19:00:00Z,30.3486,-88.4185,1.56,624.3,1111122 
NERRS,ioos:station:NOAA.NERRS:gndpcwq:1,2015-04-09T01:00:00Z,30.3486,-88.4185,1.02,353.3,1111122 
NERRS,ioos:station:NOAA.NERRS:gndpcwq:1,2015-04-09T02:00:00Z,30.3486,-88.4185,1.0,287.7,1111122 
NERRS,ioos:station:NOAA.NERRS:gndpcwq:1,2015-04-09T03:00:00Z,30.3486,-88.4185,1.23,874.6,1111122 
NERRS,ioos:station:NOAA.NERRS:gndpcwq:1,2015-04-09T04:00:00Z,30.3486,-88.4185,1.23,873.5,1111122 
NERRS,ioos:station:NOAA.NERRS:gndpcwq:1,2015-04-09T09:00:00Z,30.3486,-88.4185,1.35,459.7,1111122 
NERRS,ioos:station:NOAA.NERRS:gndpcwq:1,2015-04-09T10:00:00Z,30.3486,-88.4185,0.99,481.4,1111122 
NERRS,ioos:station:NOAA.NERRS:gndpcwq:1,2015-04-09T17:00:00Z,30.3486,-88.4185,1.67,681.3,1111122 
NERRS,ioos:station:NOAA.NERRS:gndpcwq:1,2015-04-09T18:00:00Z,30.3486,-88.4185,1.15,485.2,1111122 
NERRS,ioos:station:NOAA.NERRS:gndpcwq:1,2015-04-09T19:00:00Z,30.3486,-88.4185,1.59,918.2,1111122 
NERRS,ioos:station:NOAA.NERRS:gndpcwq:1,2015-04-09T22:00:00Z,30.3486,-88.4185,1.41,857.1,1111122 
NERRS,ioos:station:NOAA.NERRS:gndpcwq:1,2015-04-09T23:00:00Z,30.3486,-88.4185,1.34,949.0,1111122 
NERRS,ioos:station:NOAA.NERRS:gndpcwq:1,2015-04-10T00:00:00Z,30.3486,-88.4185,1.27,812.9,1111122 
NERRS,ioos:station:NOAA.NERRS:gndpcwq:1,2015-04-10T01:00:00Z,30.3486,-88.4185,1.22,916.8,1111122 
NERRS,ioos:station:NOAA.NERRS:gndpcwq:1,2015-04-10T02:00:00Z,30.3486,-88.4185,0.9,397.7,1111122 
NERRS,ioos:station:NOAA.NERRS:gndpcwq:1,2015-04-10T03:00:00Z,30.3486,-88.4185,0.96,290.0,1111122 
NERRS,ioos:station:NOAA.NERRS:gndpcwq:1,2015-04-10T04:00:00Z,30.3486,-88.4185,1.0,230.8,1111122 
NERRS,ioos:station:NOAA.NERRS:gndpcwq:1,2015-04-10T06:00:00Z,30.3486,-88.4185,1.04,169.8,1111122 
NERRS,ioos:station:NOAA.NERRS:gndpcwq:1,2015-04-10T07:00:00Z,30.3486,-88.4185,1.08,146.3,1111122 
NERRS,ioos:station:NOAA.NERRS:gndpcwq:1,2015-04-10T09:00:00Z,30.3486,-88.4185,0.94,425.3,1111122 
NERRS,ioos:station:NOAA.NERRS:gndpcwq:1,2015-04-10T10:00:00Z,30.3486,-88.4185,1.01,401.9,1111122 
NERRS,ioos:station:NOAA.NERRS:gndpcwq:1,2015-04-10T11:00:00Z,30.3486,-88.4185,1.41,522.9,1111122 
NERRS,ioos:station:NOAA.NERRS:gndpcwq:1,2015-04-10T12:00:00Z,30.3486,-88.4185,1.14,355.6,1111122 
NERRS,ioos:station:NOAA.NERRS:gndpcwq:1,2015-04-10T13:00:00Z,30.3486,-88.4185,1.49,890.1,1111122 
NERRS,ioos:station:NOAA.NERRS:gndpcwq:1,2015-04-10T14:00:00Z,30.3486,-88.4185,1.24,281.9,1111122 
NERRS,ioos:station:NOAA.NERRS:gndpcwq:1,2015-04-10T15:00:00Z,30.3486,-88.4185,1.15,447.5,1111122 
NERRS,ioos:station:NOAA.NERRS:gndpcwq:1,2015-04-10T16:00:00Z,30.3486,-88.4185,1.16,457.3,1111122 
NERRS,ioos:station:NOAA.NERRS:gndpcwq:1,2015-04-10T17:00:00Z,30.3486,-88.4185,1.3,322.8,1111122 
NERRS,ioos:station:NOAA.NERRS:gndpcwq:1,2015-04-10T19:00:00Z,30.3486,-88.4185,1.58,537.7,1111122 
NERRS,ioos:station:NOAA.NERRS:gndpcwq:1,2015-04-10T20:00:00Z,30.3486,-88.4185,1.18,382.3,1111122 
NERRS,ioos:station:NOAA.NERRS:gndpcwq:1,2015-04-10T21:00:00Z,30.3486,-88.4185,1.52,666.1,1111122 
NERRS,ioos:station:NOAA.NERRS:gndpcwq:1,2015-04-10T22:00:00Z,30.3486,-88.4185,1.46,791.6,1111122 
NERRS,ioos:station:NOAA.NERRS:gndpcwq:1,2015-04-10T23:00:00Z,30.3486,-88.4185,1.43,989.5,1111122 
NERRS,ioos:station:NOAA.NERRS:gndpcwq:1,2015-04-11T04:00:00Z,30.3486,-88.4185,1.09,937.5,1111122 
NERRS,ioos:station:NOAA.NERRS:gndpcwq:1,2015-04-11T07:00:00Z,30.3486,-88.4185,1.13,790.3,1111122 
NERRS,ioos:station:NOAA.NERRS:gndpcwq:1,2015-04-11T08:00:00Z,30.3486,-88.4185,1.15,494.4,1111122 
NERRS,ioos:station:NOAA.NERRS:gndpcwq:1,2015-04-11T12:00:00Z,30.3486,-88.4185,0.89,491.6,1111122 
NERRS,ioos:station:NOAA.NERRS:gndpcwq:1,2015-04-11T15:00:00Z,30.3486,-88.4185,1.47,988.8,1111122 
NERRS,ioos:station:NOAA.NERRS:gndpcwq:1,2015-04-12T07:00:00Z,30.3486,-88.4185,1.14,844.6,1111122 
NERRS,ioos:station:NOAA.NERRS:gndpcwq:1,2015-04-12T08:00:00Z,30.3486,-88.4185,1.18,829.6,1111122 
NERRS,ioos:station:NOAA.NERRS:gndpcwq:1,2015-04-12T09:00:00Z,30.3486,-88.4185,1.21,714.9,1111122 
NERRS,ioos:station:NOAA.NERRS:gndpcwq:1,2015-04-12T10:00:00Z,30.3486,-88.4185,1.19,48.0,1111122 
NERRS,ioos:station:NOAA.NERRS:gndpcwq:1,2015-04-12T11:00:00Z,30.3486,-88.4185,1.23,51.2,1111122 
NERRS,ioos:station:NOAA.NERRS:gndpcwq:1,2015-04-12T19:00:00Z,30.3486,-88.4185,1.58,99.1,1111122 
NERRS,ioos:station:NOAA.NERRS:gndpcwq:1,2015-04-12T21:00:00Z,30.3486,-88.4185,1.39,172.7,1111122 
NERRS,ioos:station:NOAA.NERRS:gndpcwq:1,2015-04-12T22:00:00Z,30.3486,-88.4185,1.47,194.4,1111122 
NERRS,ioos:station:NOAA.NERRS:gndpcwq:1,2015-04-12T23:00:00Z,30.3486,-88.4185,1.52,17.3,1111122 
NERRS,ioos:station:NOAA.NERRS:gndpcwq:1,2015-04-13T00:00:00Z,30.3486,-88.4185,1.5,9.0,1111122 
NERRS,ioos:station:NOAA.NERRS:gndpcwq:1,2015-04-13T01:00:00Z,30.3486,-88.4185,1.48,3.0,1111122 
NERRS,ioos:station:NOAA.NERRS:gndpcwq:1,2015-04-13T02:00:00Z,30.3486,-88.4185,1.44,0.7,1111122 
NERRS,ioos:station:NOAA.NERRS:gndpcwq:1,2015-04-13T03:00:00Z,30.3486,-88.4185,1.38,0.2,1111122 
NERRS,ioos:station:NOAA.NERRS:gndpcwq:1,2015-04-13T04:00:00Z,30.3486,-88.4185,1.39,0.2,1111122 
NERRS,ioos:station:NOAA.NERRS:gndpcwq:1,2015-04-19T16:00:00Z,30.3486,-88.4185,1.6,12.3,1111122 
NERRS,ioos:station:NOAA.NERRS:gndpcwq:1,2015-04-19T16:30:00Z,30.3486,-88.4185,1.56,12.1,1111122 
NERRS,ioos:station:NOAA.NERRS:gndpcwq:1,2015-04-19T19:00:00Z,30.3486,-88.4185,1.53,11.6,1111122 
NERRS,ioos:station:NOAA.NERRS:gndpcwq:1,2015-04-19T20:00:00Z,30.3486,-88.4185,1.46,11.7,1111122 
NERRS,ioos:station:NOAA.NERRS:gndpcwq:1,2015-04-19T21:00:00Z,30.3486,-88.4185,1.34,11.5,1111122 
NERRS,ioos:station:NOAA.NERRS:gndpcwq:1,2015-04-19T22:00:00Z,30.3486,-88.4185,1.26,11.1,1111122 
NERRS,ioos:station:NOAA.NERRS:gndpcwq:1,2015-04-19T23:00:00Z,30.3486,-88.4185,1.19,10.9,1111122 
NERRS,ioos:station:NOAA.NERRS:gndpcwq:1,2015-04-20T00:00:00Z,30.3486,-88.4185,1.19,11.0,1111122 
NERRS,ioos:station:NOAA.NERRS:gndpcwq:1,2015-04-20T01:00:00Z,30.3486,-88.4185,1.17,10.9,1111122 
NERRS,ioos:station:NOAA.NERRS:gndpcwq:1,2015-04-20T02:00:00Z,30.3486,-88.4185,1.2,11.0,1111122 
NERRS,ioos:station:NOAA.NERRS:gndpcwq:1,2015-04-20T03:00:00Z,30.3486,-88.4185,1.19,10.8,1111122 
NERRS,ioos:station:NOAA.NERRS:gndpcwq:1,2015-04-20T04:00:00Z,30.3486,-88.4185,1.25,10.9,1111122 
NERRS,ioos:station:NOAA.NERRS:gndpcwq:1,2015-04-20T06:00:00Z,30.3486,-88.4185,1.41,11.1,1111122 
NERRS,ioos:station:NOAA.NERRS:gndpcwq:1,2015-04-20T07:00:00Z,30.3486,-88.4185,1.44,11.6,1111122 
NERRS,ioos:station:NOAA.NERRS:gndpcwq:1,2015-04-20T08:00:00Z,30.3486,-88.4185,1.47,11.5,1111122 
NERRS,ioos:station:NOAA.NERRS:gndpcwq:1,2015-04-20T09:00:00Z,30.3486,-88.4185,1.44,11.4,1111122 
NERRS,ioos:station:NOAA.NERRS:gndpcwq:1,2015-04-20T10:00:00Z,30.3486,-88.4185,1.46,11.1,1111122 